sat.trackr.live / text

‹ back to catalog

STARLINK-37547

NORAD 68846 · 2026-094H

PAYLOAD ACTIVE UNKNOWN

§ Identity

Operator
Country
US
Launch date
2026-04-26
Launch site
AFWTR
Launch vehicle
Mass (kg)
RCS (m²)

Purposes: comms

External: N2YO · Heavens-Above · Gunter

§ Orbital elements

Epoch: 2026-09-20T00:46:53.147712Z

Period
93.91 min
Inclination
97.2853°
Eccentricity
0.0001064
Mean motion
15.33456525 rev/d
Perigee alt
464.8 km
Apogee alt
466.2 km
Semi-major
6,843.6 km
B*
4.0509e-4
RAAN
276.1261°
Arg perigee
81.8399°
Mean anomaly
278.2964°
Rev number
2,258

§ Raw data

STARLINK-375471 68846U 26094H   26263.03255958  .00013030  00000+0  40509-3 0  99962 68846  97.2853 276.1261 0001064  81.8399 278.2964 15.33456525 22586

JSON: /api/v1/satellites/68846 · /tle

For live sub-satellite position, see the globe view (requires WebGL).

§ Visibility from observer

Set your observer location to see the next 7 days of passes ≥ 10°. The values pass through the URL so the page stays shareable.

No JS? Fill the form by hand. The geolocation button needs JavaScript.